User: anonymous   Login
Location: South Tamworth Observatory
(43.8246°N, 71.3026°W)
Time: 22:48:36
(UTC-04:00)
Language:

Cosmos 2208 Rocket - Orbit

View from above orbital plane
View from above orbital plane
View from above satellite
View from above satellite

Ground track
Ground track

The orbit data is extracted from the following two-line orbital elements,

1 22081U 92053B   15115.32212707  .00000349  00000-0  13529-3 0  9998
2 22081 074.0448 069.5224 0037123 231.9057 127.8745 14.33220839186535
Epoch (UTC): 25 April 2015 07:43:51
Eccentricity: 0.0037123
inclination: 74.0448°
perigee height: 754 km
apogee height: 807 km
right ascension of ascending node: 69.5224°
argument of perigee: 231.9057°
revolutions per day: 14.33220839
mean anomaly at epoch: 127.8745°
orbit number at epoch: 18653

The dashed part of the orbit path shows where the satellite is in the earth's shadow,  

DLR